星链-35511(STARLINK-35511)

导读

STARLINK-35511是美国SpaceX星链卫星互联网项目的卫星,于2025年11月6日发射。作为星链星座的组成部分,它承担低轨卫星互联网传输任务,可为全球偏远区域、高纬度地区提供宽带网络服务,进一步扩充星链星座的服务覆盖范围,提升星座整体通信容量。

基本信息
目录编号:
66344
目录名称:
STARLINK-35511
国际标识:
2025-253AB
轨道中心:
EARTH
卫星名称:
星链-35511
卫星全名:
星链-35511(STARLINK-35511)
卫星状态:
在轨 (已飞行309 天)
发射日期:
2025-11-06 UTC
国别 :
美国 (US)
星等 :
--
该卫星已列入 空间交会检测服务 Space Conjunction Data Service (SCDS) ,当前飞行风险评估等级: 高风险
轨道信息
数据来源 国际轨道数据
星历时间: 2026-09-09T17:24:29+0800
2天前
查看轨道信息
半长轴: 6861.141km
偏心率: 0.0001101
轨道倾角: 42.998°
近地点辐角 194.471°
升交点赤经 254.672°
平近点角 165.611°
近地点: 482.248km
远地点: 483.76km
周期: 94.266分钟
每日圈数: 15.275952
详细信息
固有亮度:
5
最大亮度:
2.5
卫星平台:
Starlink V1.0
覆盖范围:
全球
运营商:
太空探索技术公司
运营商所在国:
美国
制造商(研发单位):
太空探索技术公司
制造商所在国:
美国
使用方式:
暂无
卫星简介
Starlink 计划是 SpaceX 推出的全球卫星互联网项目,通过发射低轨道卫星,为全球尤其是偏远地区提供高速、低延迟的互联网服务。自 2019 年起,Starlink 已部署数千颗卫星,旨在缩小全球数字鸿沟,推动互联网普及。该项目还为军事、航空等行业提供通信支持,带来广泛经济效益。
2D轨道图
3D轨道图
轨道高度分析图
轨道倾角分析图
轨道综合分析图
查看轨道综合分析图
交会数据列表
事件ID 空间交会对象 最接近时刻(TCA) 交会距离 交会风险概率(CRP) 交会风险指数(CRI) 操作
CDM_260912-152006-212406-634422
2026-09-12T
15:20:44+0000
0.133 km
中距离
8.733938E-4 高风险 0.94
CDM_260913-023305-984506-634421
2026-09-13T
02:33:04+0000
0.151 km
中距离
7.327772E-4 高风险 0.92
CDM_260913-120905-561106-634421
2026-09-13T
12:09:31+0000
0.379 km
远距离
2.88814E-4 高风险 0.84
CDM_260911-133305-932606-634421
2026-09-11T
13:33:44+0000
0.389 km
远距离
9.894091E-5 中风险 0.75
CDM_260913-092306-212406-634421
2026-09-13T
09:23:29+0000
0.621 km
远距离
6.977236E-5 中风险 0.72
CDM_260911-102106-163506-634421
2026-09-11T
10:21:00+0000
0.628 km
远距离
5.771806E-5 中风险 0.7
CDM_260910-223406-163506-634421
2026-09-10T
22:34:50+0000
0.631 km
远距离
5.69386E-5 中风险 0.7
CDM_260913-094805-956406-634421
2026-09-13T
09:48:53+0000
0.919 km
远距离
2.743874E-5 中风险 0.64
CDM_260913-234805-841906-634421
2026-09-13T
23:48:15+0000
0.997 km
远距离
1.691309E-5 中风险 0.6
CDM_260913-074906-212406-634421
2026-09-13T
07:49:20+0000
1.179 km
极远距离
8.522637E-6 低风险 0.54
与全量物体交会距离演化趋势
与全量物体交会风险概率演化趋势